Print

CHIHRRCWA 000
TTAA00 KDVN 290704
HOURLY WEATHER ROUNDUP
NATIONAL WEATHER SERVICE QUAD CITIES IA IL
200 AM CDT SUN MAR 29 2015

Note: "Fair" indicates few or no clouds below 12,000 feet with no
significant weather and/or obstructions to visibility.

* - These stations are not NWS stations...and not subject to NWS
quality control.  Some stations do not report weather such as fog.

...NORTHEAST IOWA..................................................

  
CITY           SKY/WX    TMP DP  RH WIND       PRES   REMARKS
DECORAH *      CLOUDY    32  18  55 S16G24    29.99F WCI  21          
WATERLOO       CLEAR     32  19  58 S18       30.01F WCI  20          
OELWEIN *      PTCLDY    32  19  59 S18       30.03F WCI  20          
INDEPENDENCE * CLEAR     32  21  64 S18       30.04F WCI  20          
DUBUQUE        MOCLDY    31  17  56 S17G26    30.09F WCI  19          

...SOUTHWEST AND SOUTH CENTRAL WISCONSIN...........................

  
CITY           SKY/WX    TMP DP  RH WIND       PRES   REMARKS
PRAIRIE DU CHI MOCLDY    34  15  45 SE10G20   30.07F WCI  26          
BOSCOBEL       MOCLDY    34  15  46 S7        30.09F WCI  28          
LONE ROCK      PTCLDY    34  15  46 S15       30.10F WCI  24          
MINERAL POINT* NOT AVBL                                               
MONROE *       PTCLDY    30  19  64 S13       30.13F WCI  20          
JANESVILLE *   MOCLDY    32  14  47 S10       30.17F WCI  24          

...EAST CENTRAL IOWA...............................................

  
CITY           SKY/WX    TMP DP  RH WIND       PRES   REMARKS
MARSHALLTOWN   CLEAR     33  20  58 S18G26    30.00F WCI  22          
NEWTON *       CLEAR     32  21  64 S15       30.02F WCI  22          
VINTON *       CLEAR     33  19  57 S15       30.05F WCI  22          
CEDAR RAPIDS   PTCLDY    31  19  61 S15       30.07F WCI  20          
IOWA CITY      PTCLDY    31  20  63 S10       30.13F WCI  22          
MONTICELLO *   MOCLDY    32  19  59 S15G23    30.09F WCI  22          
CLINTON *      PTCLDY    30  19  64 S14       30.18F WCI  20          
DAVENPORT      PTCLDY    32  17  54 S15       30.15F WCI  22          

...NORTHWEST ILLINOIS..............................................

  
CITY           SKY/WX    TMP DP  RH WIND       PRES   REMARKS
FREEPORT *     PTCLDY    28  19  70 S9        30.18F WCI  19          
ROCKFORD       PTCLDY    29  17  61 S13       30.20F WCI  19          
SAVANNA *      PTCLDY    32  19  59 S12       30.16F WCI  23          
STERLING/R.F.* CLEAR     28  19  69 S6        30.18F WCI  22          
ROCHELLE *     PTCLDY    26  20  77 S9        30.20F WCI  17          
MOLINE         PTCLDY    31  18  58 S13       30.15F WCI  21          
PERU *         NOT AVBL                                               

...SOUTHEAST IOWA AND NORTHEAST MISSOURI...........................

  
CITY           SKY/WX    TMP DP  RH WIND       PRES   REMARKS
KNOXVILLE *    CLEAR     34  21  60 S14G21    30.02F WCI  24          
OTTUMWA        CLEAR     34  19  54 S18       30.07F WCI  23          
FAIRFIELD *    CLEAR     32  19  59 S15       30.10F WCI  22          
WASHINGTON *   PTCLDY    32  21  64 S14       30.11F WCI  22          
MT PLEASANT *  CLEAR     32  20  60 S15G21    30.13F WCI  22          
BURLINGTON     CLEAR     33  20  58 S13G22    30.14F WCI  24          
KIRKSVILLE     CLEAR     33  25  72 S13       30.11F WCI  24          

...WESTERN ILLINOIS................................................

  
CITY           SKY/WX    TMP DP  RH WIND       PRES   REMARKS
MACOMB *       CLEAR     30  23  75 SE9       30.20F WCI  21          
GALESBURG *    CLEAR     30  22  69 S9        30.18F WCI  22          
PEORIA         CLEAR     34  18  52 S13       30.22F WCI  25          
QUINCY         PTCLDY    33  19  56 S13       30.16F WCI  24          

END...
  

USA.gov is the U.S. government's official web portal to all federal, state and local government web resources and services.